Weather History for Esbjerg, Denmark

Change the Weather History Date:

Saturday, February 16, 2013

  Actual Average Record
Temperature  
Mean Temperature 32 °F -  
Max Temperature 35 °F 40 °F 46 °F (1998)
Min Temperature 30 °F 31 °F 21 °F (2003)
Degree Days  
Heating Degree Days 32    
Moisture  
Dew Point 31 °F    
Average Humidity 94    
Maximum Humidity 100    
Minimum Humidity 87    
Precipitation  
Precipitation 0.00 in - - ()
Sea Level Pressure  
Sea Level Pressure 30.23 in    
Wind  
Wind Speed 5 mph ()    
Max Wind Speed 9 mph    
Max Gust Speed -    
Visibility 1.6 miles    
Events Fog , Rain , Snow    
Averages and records for this station are not official NWS values.
T = Trace of Precipitation, MM = Missing Value Source: Averaged Metar Reports

Daily Weather History Graph

Daily Weather History Graph

Search for Another Location

Airport:

Trip Planner

Search our weather history database for the weather conditions in past years. The results will help you decide how hot, cold, wet, or windy it might be!

Date:

Astronomy

Feb. 16, 2013 Rise Set
Actual Time 7:47 AM CET 5:33 PM CET
Civil Twilight 7:09 AM CET 6:11 PM CET
Nautical Twilight 6:26 AM CET 6:54 PM CET
Astronomical Twilight 5:43 AM CET 7:36 PM CET
Moon 9:35 AM CET (2/16) 12:28 AM CET (2/16)
Length of Visible Light 11h 02m
Length of Day
9h 46m
Waxing Crescent, 37% of the Moon is Illuminated
Feb 16
Waxing Crescent
Feb 17
First Quarter
Feb 25
Full
Mar 4
Last Quarter
Mar 11
New

Hourly Weather History & Observations

Time (CET) Temp. Windchill Dew Point Humidity Pressure Visibility Wind Dir Wind Speed Gust Speed Precip Events Conditions
12:20 AM 32.0 °F 28.7 °F 32.0 °F 100% 30.15 in - East 3.5 mph - N/A Fog , Rain Light Rain Showers
12:50 AM 32.0 °F 26.4 °F 32.0 °F 100% 30.15 in - East 5.8 mph - N/A Fog , Rain Light Rain Showers
1:20 AM 32.0 °F 26.4 °F 32.0 °F 100% 30.15 in 0.6 mi ESE 5.8 mph - N/A Fog , Rain Light Rain Showers
1:50 AM 32.0 °F 26.4 °F 32.0 °F 100% 30.15 in 0.9 mi ESE 5.8 mph - N/A   Drizzle
2:20 AM 32.0 °F 26.4 °F 32.0 °F 100% 30.15 in 1.0 mi ESE 5.8 mph - N/A   Light Drizzle
2:50 AM 32.0 °F 26.4 °F 32.0 °F 100% 30.15 in 1.1 mi ESE 5.8 mph - N/A   Overcast
3:20 AM 32.0 °F 26.4 °F 32.0 °F 100% 30.15 in 1.2 mi ESE 5.8 mph - N/A   Overcast
3:50 AM 32.0 °F 25.6 °F 32.0 °F 100% 30.15 in 1.2 mi ESE 6.9 mph - N/A   Overcast
4:20 AM 32.0 °F 25.6 °F 32.0 °F 100% 30.15 in 1.1 mi ESE 6.9 mph - N/A Rain Light Rain Showers
4:50 AM 32.0 °F 26.4 °F 32.0 °F 100% 30.18 in 0.8 mi ESE 5.8 mph - N/A Rain , Snow Light Rain Showers
5:20 AM 32.0 °F 26.4 °F 32.0 °F 100% 30.18 in 0.7 mi East 5.8 mph - N/A Snow Light Snow
5:50 AM 32.0 °F 26.4 °F 32.0 °F 100% 30.18 in 0.9 mi East 5.8 mph - N/A Snow Light Snow
6:20 AM 32.0 °F 25.6 °F 32.0 °F 100% 30.18 in 1.1 mi East 6.9 mph - N/A Snow Light Snow Grains
6:50 AM 32.0 °F 25.6 °F 32.0 °F 100% 30.18 in 1.1 mi East 6.9 mph - N/A   Drizzle
7:20 AM 32.0 °F 25.6 °F 32.0 °F 100% 30.18 in 1.2 mi East 6.9 mph - N/A Rain Light Rain
7:50 AM 32.0 °F 26.4 °F 32.0 °F 100% 30.21 in 1.4 mi East 5.8 mph - N/A Snow Light Snow Grains
8:20 AM 32.0 °F 26.4 °F 32.0 °F 100% 30.21 in 1.6 mi East 5.8 mph - N/A Snow Light Snow Grains
8:50 AM 32.0 °F 25.6 °F 32.0 °F 100% 30.21 in 1.5 mi East 6.9 mph - N/A   Overcast
9:20 AM 32.0 °F 27.5 °F 32.0 °F 100% 30.21 in 1.6 mi East 4.6 mph - N/A   Overcast
9:50 AM 33.8 °F 27.7 °F 32.0 °F 93% 30.21 in 1.7 mi East 6.9 mph - N/A   Overcast
10:20 AM 33.8 °F 27.0 °F 32.0 °F 93% 30.24 in 1.8 mi East 8.1 mph - N/A   Overcast
10:50 AM 33.8 °F 27.0 °F 32.0 °F 93% 30.24 in - East 8.1 mph - N/A   Mostly Cloudy
11:20 AM 33.8 °F 27.7 °F 32.0 °F 93% 30.24 in - East 6.9 mph - N/A   Overcast
11:50 AM 33.8 °F 27.0 °F 32.0 °F 93% 30.24 in - East 8.1 mph - N/A   Mostly Cloudy
12:20 PM 35.6 °F 29.2 °F 32.0 °F 87% 30.24 in 3.1 mi East 8.1 mph - N/A   Mostly Cloudy
12:50 PM 35.6 °F 28.6 °F 32.0 °F 87% 30.24 in 3.1 mi East 9.2 mph - N/A   Mostly Cloudy
1:20 PM 35.6 °F 29.2 °F 32.0 °F 87% 30.24 in 3.1 mi East 8.1 mph - N/A   Mostly Cloudy
1:50 PM 35.6 °F 29.9 °F 32.0 °F 87% 30.24 in 3.1 mi East 6.9 mph - N/A   Overcast
2:20 PM 35.6 °F 29.9 °F 32.0 °F 87% 30.24 in 3.1 mi ESE 6.9 mph - N/A   Mostly Cloudy
2:50 PM 35.6 °F 29.9 °F 32.0 °F 87% 30.24 in - East 6.9 mph - N/A   Mostly Cloudy
3:20 PM - - - N/A% 30.27 in - East 5.8 mph - N/A   Overcast
3:50 PM - - - N/A% 30.27 in - East 6.9 mph - N/A   Overcast
4:20 PM 35.6 °F 29.9 °F 32.0 °F 87% 30.27 in - East 6.9 mph - N/A   Overcast
4:50 PM 33.8 °F 27.7 °F 32.0 °F 93% 30.27 in 2.8 mi East 6.9 mph - N/A   Overcast
5:20 PM - - - N/A% 30.27 in - East 6.9 mph - N/A   Overcast
5:50 PM 33.8 °F 28.6 °F 30.2 °F 87% 30.27 in - East 5.8 mph - N/A   Overcast
6:20 PM 33.8 °F 28.6 °F 30.2 °F 87% 30.27 in 2.5 mi ESE 5.8 mph - N/A   Mostly Cloudy
6:50 PM 33.8 °F 29.6 °F 30.2 °F 87% 30.27 in - ESE 4.6 mph - N/A   Mostly Cloudy
7:20 PM 33.8 °F 28.6 °F 30.2 °F 87% 30.27 in 2.2 mi ESE 5.8 mph - N/A   Overcast
7:50 PM 32.0 °F 28.7 °F 30.2 °F 93% 30.30 in - East 3.5 mph - N/A   Overcast
8:20 PM 32.0 °F - 30.2 °F 93% 30.30 in - East 2.3 mph - N/A   Overcast
8:50 PM 32.0 °F 28.7 °F 30.2 °F 93% 30.30 in 1.6 mi East 3.5 mph - N/A   Mostly Cloudy
9:20 PM 30.2 °F 26.7 °F 28.4 °F 93% 30.30 in 1.4 mi East 3.5 mph - N/A   Overcast
9:50 PM 32.0 °F 27.5 °F 30.2 °F 93% 30.30 in 1.4 mi East 4.6 mph - N/A   Overcast
10:20 PM 32.0 °F 27.5 °F 30.2 °F 93% 30.30 in 1.5 mi East 4.6 mph - N/A   Overcast
10:50 PM 32.0 °F - 30.2 °F 93% 30.30 in 1.4 mi East 2.3 mph - N/A   Mostly Cloudy
11:20 PM 32.0 °F 28.7 °F 30.2 °F 93% 30.30 in 1.6 mi East 3.5 mph - N/A   Mostly Cloudy
11:50 PM 32.0 °F 27.5 °F 30.2 °F 93% 30.30 in 1.2 mi East 4.6 mph - N/A   Overcast